Air Quality Table

TIMESTAMP NO2 SO2 O3 PM10 PM2.5 TEMP HUM AIRPRES WS WD NO
2022-08-10 22:00 7.8 µg/m3 -0.05 µg/m3 65.4 µg/m3 20.94 µg/m3 6.22 µg/m3 27.55 °C 73.5 % 1,006.72 mbar 0.78 m/s 203.23 Deg 0.78 µg/m3
2022-08-10 21:00 4.94 µg/m3 -0.06 µg/m3 72.01 µg/m3 27.04 µg/m3 6.65 µg/m3 27.9 °C 71.28 % 1,006.56 mbar 0.83 m/s 237.89 Deg 0.73 µg/m3
2022-08-10 20:00 3.83 µg/m3 -0.04 µg/m3 78.37 µg/m3 32.15 µg/m3 7.24 µg/m3 28.25 °C 72.37 % 1,006.40 mbar 0.89 m/s 222.88 Deg 0.69 µg/m3
2022-08-10 19:00 4.98 µg/m3 -0.04 µg/m3 74.3 µg/m3 17.62 µg/m3 6.9 µg/m3 29.04 °C 69.75 % 1,006.25 mbar 1.21 m/s 268.91 Deg 0.85 µg/m3
2022-08-10 18:00 3.37 µg/m3 -0.02 µg/m3 74.66 µg/m3 15.5 µg/m3 6.45 µg/m3 29.69 °C 65.69 % 1,006.01 mbar 1.75 m/s 226.88 Deg 0.87 µg/m3
2022-08-10 17:00 2.57 µg/m3 -0.1 µg/m3 77.92 µg/m3 10.27 µg/m3 6.19 µg/m3 29.56 °C 65.54 % 1,006.07 mbar 2.66 m/s 198.13 Deg 0.97 µg/m3
2022-08-10 16:00 2.33 µg/m3 -0.08 µg/m3 77.48 µg/m3 8.33 µg/m3 4.84 µg/m3 29.48 °C 66 % 1,006.14 mbar 3.8 m/s 183.1 Deg 1 µg/m3
2022-08-10 15:00 2.35 µg/m3 -0.1 µg/m3 74.38 µg/m3 10.64 µg/m3 4.52 µg/m3 29.28 °C 71.96 % 1,006.27 mbar 4.45 m/s 165.63 Deg 1.03 µg/m3
2022-08-10 14:00 1.15 µg/m3 -0.08 µg/m3 75.83 µg/m3 12.46 µg/m3 5.25 µg/m3 29.16 °C 75.65 % 1,006.90 mbar 3.91 m/s 156.65 Deg 0.82 µg/m3
2022-08-10 13:00 0.49 µg/m3 -0.07 µg/m3 84.89 µg/m3 11.45 µg/m3 5.92 µg/m3 28.99 °C 77.91 % 1,007.13 mbar 4.69 m/s 132.72 Deg 0.67 µg/m3
2022-08-10 12:00 1.72 µg/m3 -0.07 µg/m3 82.43 µg/m3 10.04 µg/m3 5.64 µg/m3 29.32 °C 74.39 % 1,007.31 mbar 3.51 m/s 141.93 Deg 0.87 µg/m3
2022-08-10 11:00 6.1 µg/m3 -0.06 µg/m3 82.88 µg/m3 11.88 µg/m3 7.75 µg/m3 29.11 °C 76.1 % 1,007.38 mbar 3.75 m/s 146.97 Deg 1.75 µg/m3
2022-08-10 10:00 3.01 µg/m3 -0.05 µg/m3 85.15 µg/m3 15.34 µg/m3 11.14 µg/m3 28.82 °C 75.58 % 1,007.30 mbar 3.5 m/s 147 Deg 1.12 µg/m3
2022-08-10 09:00 16.46 µg/m3 -0.05 µg/m3 74.23 µg/m3 23.64 µg/m3 15.29 µg/m3 28.74 °C 73.67 % 1,007.17 mbar 2.38 m/s 156.1 Deg 3.34 µg/m3
2022-08-10 08:00 12.35 µg/m3 -0.03 µg/m3 76 µg/m3 41.51 µg/m3 19.91 µg/m3 28.23 °C 79.17 % 1,007.01 mbar 1.54 m/s 191.5 Deg 2.41 µg/m3
2022-08-10 07:00 23.16 µg/m3 -0.04 µg/m3 61.87 µg/m3 31.13 µg/m3 11.14 µg/m3 26.98 °C 88.93 % 1,006.89 mbar 1.11 m/s 249.83 Deg 2.42 µg/m3
2022-08-10 06:00 16.37 µg/m3 -0.03 µg/m3 54.06 µg/m3 32.29 µg/m3 11.12 µg/m3 26.59 °C 90.73 % 1,006.68 mbar 1.21 m/s 230.35 Deg 1.44 µg/m3
2022-08-10 05:00 10.12 µg/m3 -0.06 µg/m3 50.4 µg/m3 32.38 µg/m3 13.81 µg/m3 26.73 °C 91.68 % 1,006.28 mbar 0.96 m/s 188.87 Deg 1.11 µg/m3
2022-08-10 04:00 9.77 µg/m3 0.11 µg/m3 47.96 µg/m3 37.09 µg/m3 21.4 µg/m3 26.82 °C 91.75 % 1,006.35 mbar 0.83 m/s 196.83 Deg 0.94 µg/m3
2022-08-10 03:00 10.79 µg/m3 -0.03 µg/m3 43.35 µg/m3 27.83 µg/m3 8.67 µg/m3 26.9 °C 91.65 % 1,006.45 mbar 0.78 m/s 171.12 Deg 1.2 µg/m3
2022-08-10 02:00 8.13 µg/m3 -0.05 µg/m3 45.6 µg/m3 23.45 µg/m3 11.09 µg/m3 27.04 °C 90.41 % 1,006.63 mbar 1.11 m/s 207.47 Deg 0.96 µg/m3
2022-08-10 01:00 7.49 µg/m3 -0.05 µg/m3 58.96 µg/m3 32.55 µg/m3 17.62 µg/m3 27.29 °C 89.62 % 1,006.90 mbar 0.72 m/s 209.2 Deg 0.91 µg/m3
2022-08-10 00:00 7.92 µg/m3 -0.03 µg/m3 64.91 µg/m3 35.61 µg/m3 16.67 µg/m3 27.63 °C 88.32 % 1,007.26 mbar 0.62 m/s 283.33 Deg 0.83 µg/m3

It is to be noted that the data is provisional and subject to quality assurance procedures. For validated data kindly refer your request to contact.air@era.org.mt